Location: Boss Branch
(32.3799°N, 97.2508°W)
Time: 00:56:05
(UTC+00:00)

Vanguard 1 - All Passes

Search period start: 05 November 2024 00:00
Search period end: 15 November 2024 00:00
Orbit: 649 x 3824 km, 34.3° (Epoch: 04 November)

Date Brightness Start Highest point End Pass type
(mag) Time Alt. Az. Time Alt. Az. Time Alt. Az.
05 Nov - 03:26:59 10° SSW 03:31:06 24° SE 03:36:47 10° E night (unlit)
05 Nov - 05:44:26 10° WSW 05:50:46 85° SSE 06:02:38 10° ENE visible
05 Nov - 08:03:58 10° W 08:13:09 83° N 08:30:53 10° E visible
05 Nov - 10:24:21 10° WNW 10:37:20 70° SSW 10:59:16 10° SE visible
05 Nov - 12:47:10 10° W 13:02:31 37° SW 13:22:24 10° SSE daylight
06 Nov - 03:45:41 10° SSW 03:50:17 36° SE 03:57:13 10° E night (unlit)
06 Nov - 06:03:58 10° W 06:10:31 86° N 06:22:57 10° E visible
06 Nov - 08:23:36 10° W 08:33:08 88° NNE 08:51:27 10° ESE visible
06 Nov - 10:44:07 10° WNW 10:57:20 61° SSW 11:18:58 10° SE visible
06 Nov - 13:08:03 10° W 13:22:26 29° SW 13:40:20 10° S daylight
07 Nov - 04:04:43 10° SW 04:09:36 51° SSE 04:17:24 10° ENE night (unlit)
07 Nov - 06:23:32 10° W 06:30:20 81° N 06:43:20 10° E visible
07 Nov - 08:43:12 10° WNW 08:53:05 86° SSW 09:11:53 10° ESE visible
07 Nov - 11:04:00 10° W 11:17:19 52° SSW 11:38:19 10° SE visible
07 Nov - 13:29:44 10° W 13:42:23 22° SW 13:57:26 10° S daylight
08 Nov - 02:08:15 10° SSE 02:10:04 12° SE 02:12:00 10° ESE visible
08 Nov - 04:23:59 10° WSW 04:29:03 69° SSE 04:37:29 10° ENE night (unlit)
08 Nov - 06:43:07 10° W 06:50:11 80° N 07:03:47 10° E visible
08 Nov - 09:02:49 10° WNW 09:13:00 77° SSW 09:32:09 10° ESE visible
08 Nov - 11:24:04 10° W 11:37:17 43° SSW 11:57:17 10° SSE visible
08 Nov - 13:53:00 10° WSW 14:02:25 15° SW 14:12:58 10° SSW daylight
09 Nov - 02:25:53 10° SSW 02:29:15 20° SE 02:33:16 10° E visible
09 Nov - 04:43:23 10° WSW 04:48:37 84° SSE 04:57:34 10° ENE night (unlit)
09 Nov - 07:02:42 10° W 07:10:02 82° N 07:24:15 10° E visible
09 Nov - 09:22:27 10° WNW 09:32:55 68° SSW 09:52:09 10° SE visible
09 Nov - 11:44:25 10° W 11:57:16 34° SW 12:15:46 10° SSE visible
10 Nov - 02:44:30 10° SSW 02:48:30 31° SSE 02:53:37 10° E visible
10 Nov - 05:02:54 10° W 05:08:18 84° N 05:17:42 10° E night (unlit)
10 Nov - 07:22:14 10° WNW 07:29:52 87° N 07:44:41 10° ESE visible
10 Nov - 09:42:09 10° W 09:52:50 58° SSW 10:11:50 10° SE visible
10 Nov - 12:05:14 10° W 12:17:17 27° SW 12:33:39 10° SSE visible
11 Nov - 03:03:32 10° SW 03:07:50 47° SSE 03:13:41 10° E night (unlit)
11 Nov - 05:22:27 10° W 05:28:01 78° N 05:37:53 10° E night (unlit)
11 Nov - 07:41:47 10° WNW 07:49:41 85° SSW 08:05:01 10° ESE visible
11 Nov - 10:01:58 10° W 10:12:45 48° SSW 10:31:11 10° SE visible
11 Nov - 12:26:53 10° WSW 12:37:21 20° SW 12:50:37 10° S visible
12 Nov - 01:06:51 10° SSE 01:08:06 11° SE 01:09:20 10° SE visible
12 Nov - 03:22:48 10° WSW 03:27:16 66° SSE 03:33:36 10° ENE night (unlit)
12 Nov - 05:42:00 10° W 05:47:45 77° N 05:58:08 10° E night (unlit)
12 Nov - 08:01:20 10° WNW 08:09:29 75° SSW 08:25:11 10° ESE visible
12 Nov - 10:21:59 10° W 10:32:43 39° SSW 10:50:07 10° SSE visible
12 Nov - 12:50:27 10° WSW 12:57:31 13° SW 13:05:40 10° SSW daylight
13 Nov - 01:24:16 10° SSW 01:27:26 19° SSE 01:30:41 10° ESE visible
13 Nov - 03:42:14 10° WSW 03:46:48 84° SSE 03:53:31 10° ENE night (unlit)
13 Nov - 06:01:32 10° W 06:07:30 80° N 06:18:24 10° E night (unlit)
13 Nov - 08:20:55 10° W 08:29:17 64° SSW 08:45:07 10° SE visible
13 Nov - 10:42:18 10° W 10:52:43 30° SSW 11:08:33 10° SSE visible
14 Nov - 01:42:54 10° SSW 01:46:48 29° SSE 01:50:56 10° E visible
14 Nov - 04:01:45 10° W 04:06:24 82° N 04:13:26 10° E night (unlit)
14 Nov - 06:21:03 10° WNW 06:27:13 87° N 06:38:40 10° ESE visible
14 Nov - 08:40:34 10° W 08:49:06 53° SSW 09:04:45 10° SE visible
14 Nov - 11:03:09 10° WSW 11:12:45 23° SSW 11:26:18 10° S visible
